Weather History for KFSO - February, 2014

Change the Weather History Date:

Sunday, February 23, 2014

  Actual Average (KPBG) Record (KPBG)
Temperature  
Mean Temperature 38 °F 24 °F  
Max Temperature 45 °F 33 °F 51 °F (1981)
Min Temperature 30 °F 14 °F -23 °F (1972)
Degree Days  
Heating Degree Days 28 41  
Month to date heating degree days 1033  
Since 1 July heating degree days 5409  
Cooling Degree Days 0 0  
Month to date cooling degree days 0  
Year to date cooling degree days 0  
Moisture  
Dew Point 16 °F    
Average Humidity 43    
Maximum Humidity 57    
Minimum Humidity 24    
Precipitation  
Precipitation 0.00 in - 1.00 in (1971)
Month to date precipitation  
Year to date precipitation  
Sea Level Pressure  
Sea Level Pressure 29.84 in    
Wind  
Wind Speed 4 mph (WSW)    
Max Wind Speed 14 mph    
Max Gust Speed 23 mph    
Visibility 10 miles    
Events      
T = Trace of Precipitation, MM = Missing Value Source: NWS Daily Summary

Daily Weather History Graph

Daily Weather History Graph

Search for Another Location

Airport or City:

Trip Planner

Search our weather history database for the weather conditions in past years. The results will help you decide how hot, cold, wet, or windy it might be!

Date:

Astronomy

Feb. 23, 2014 Rise Set
Actual Time 6:40 AM EST 5:31 PM EST
Civil Twilight 6:10 AM EST 6:01 PM EST
Nautical Twilight 5:36 AM EST 6:35 PM EST
Astronomical Twilight 5:02 AM EST 7:09 PM EST
Moon 1:43 AM EST (2/23) 11:23 AM EST (2/23)
Length of Visible Light 11h 50m
Length of Day
10h 51m
Last Quarter, 39% of the Moon is Illuminated
Feb 23
Last Quarter
Mar 1
New
Mar 8
First Quarter
Mar 16
Full
Mar 23
Last Quarter

Hourly Weather History & Observations

Time (EST) Temp. Windchill Dew Point Humidity Pressure Visibility Wind Dir Wind Speed Gust Speed Precip Events Conditions
12:20 AM 35.6 °F 32.8 °F 17.4 °F 48% 29.89 in 10.0 mi SW 3.5 mph - N/A   Mostly Cloudy
12:35 AM 35.6 °F 32.8 °F 16.9 °F 47% 29.88 in 10.0 mi SSW 3.5 mph - N/A   Mostly Cloudy
12:55 AM 35.6 °F 32.8 °F 16.5 °F 46% 29.88 in 10.0 mi South 3.5 mph - N/A   Scattered Clouds
1:15 AM 33.8 °F 29.6 °F 15.8 °F 48% 29.88 in 10.0 mi South 4.6 mph - N/A   Scattered Clouds
1:35 AM 33.1 °F 30.0 °F 15.3 °F 48% 29.89 in 10.0 mi SSW 3.5 mph - N/A   Clear
1:55 AM 33.1 °F 30.0 °F 15.3 °F 48% 29.88 in 10.0 mi South 3.5 mph - N/A   Clear
2:15 AM 33.1 °F 30.0 °F 14.9 °F 47% 29.88 in 10.0 mi South 3.5 mph - N/A   Clear
2:35 AM 32.9 °F 29.8 °F 15.1 °F 48% 29.88 in 10.0 mi South 3.5 mph - N/A   Clear
2:55 AM 33.4 °F 29.1 °F 14.4 °F 46% 29.88 in 10.0 mi SSW 4.6 mph - N/A   Clear
3:15 AM 33.1 °F - 14.5 °F 47% 29.87 in 10.0 mi Calm Calm - N/A   Clear
3:35 AM 33.1 °F - 14.9 °F 47% 29.88 in 10.0 mi Calm Calm - N/A   Clear
3:55 AM 33.1 °F 30.0 °F 15.4 °F 48% 29.88 in 10.0 mi SSW 3.5 mph - N/A   Clear
4:15 AM 33.1 °F 30.0 °F 14.5 °F 47% 29.88 in 10.0 mi SW 3.5 mph - N/A   Clear
4:35 AM 33.1 °F 30.0 °F 14.7 °F 47% 29.88 in 10.0 mi SW 3.5 mph - N/A   Clear
4:55 AM 33.1 °F 28.7 °F 14.9 °F 47% 29.89 in 10.0 mi SW 4.6 mph - N/A   Clear
5:15 AM 35.6 °F 32.8 °F 16.7 °F 46% 29.89 in 10.0 mi SW 3.5 mph - N/A   Clear
5:35 AM 35.6 °F - 17.2 °F 47% 29.89 in 10.0 mi Calm Calm - N/A   Scattered Clouds
5:55 AM 33.4 °F - 16.0 °F 49% 29.89 in 10.0 mi Calm Calm - N/A   Scattered Clouds
6:15 AM 33.1 °F - 16.3 °F 50% 29.89 in 10.0 mi Calm Calm - N/A   Scattered Clouds
6:35 AM 32.5 °F - 16.5 °F 52% 29.89 in 10.0 mi Calm Calm - N/A   Scattered Clouds
6:55 AM 31.5 °F 28.1 °F 16.3 °F 54% 29.90 in 10.0 mi NW 3.5 mph - N/A   Scattered Clouds
7:15 AM 31.1 °F - 16.7 °F 55% 29.90 in 10.0 mi Calm Calm - N/A   Scattered Clouds
7:35 AM 30.9 °F - 16.7 °F 56% 29.90 in 10.0 mi Calm Calm - N/A   Clear
7:55 AM 31.1 °F - 17.2 °F 57% 29.91 in 10.0 mi Calm Calm - N/A   Clear
8:15 AM 31.8 °F - 17.4 °F 55% 29.91 in 10.0 mi Calm Calm - N/A   Clear
8:35 AM 32.0 °F - 16.7 °F 53% 29.91 in 10.0 mi Calm Calm - N/A   Clear
8:55 AM 33.1 °F - 16.3 °F 50% 29.91 in 10.0 mi Calm Calm - N/A   Clear
9:15 AM 35.6 °F - 18.1 °F 49% 29.91 in 10.0 mi Calm Calm - N/A   Clear
9:35 AM 35.6 °F 32.8 °F 17.4 °F 48% 29.90 in 10.0 mi SE 3.5 mph - N/A   Clear
9:55 AM 36.9 °F 34.3 °F 18.3 °F 47% 29.90 in 10.0 mi SE 3.5 mph - N/A   Clear
10:15 AM 38.3 °F 35.9 °F 18.3 °F 45% 29.90 in 10.0 mi SSE 3.5 mph - N/A   Clear
10:35 AM 41.0 °F 39.0 °F 19.4 °F 42% 29.89 in 10.0 mi SSW 3.5 mph - N/A   Clear
10:55 AM 41.0 °F 39.0 °F 18.7 °F 41% 29.88 in 10.0 mi West 3.5 mph - N/A   Clear
11:15 AM 42.1 °F 40.2 °F 18.0 °F 38% 29.87 in 10.0 mi SW 3.5 mph - N/A   Clear
11:35 AM 41.5 °F 38.6 °F 16.5 °F 36% 29.87 in 10.0 mi West 4.6 mph - N/A   Clear
11:55 AM 43.3 °F 40.7 °F 15.8 °F 33% 29.85 in 10.0 mi WSW 4.6 mph - N/A   Clear
12:15 PM 43.9 °F 39.3 °F 14.0 °F 30% 29.84 in 10.0 mi West 8.1 mph 17.3 mph N/A   Clear
12:35 PM 44.8 °F 41.6 °F 14.0 °F 29% 29.83 in 10.0 mi West 5.8 mph - N/A   Clear
12:55 PM 45.0 °F 40.6 °F 14.0 °F 29% 29.82 in 10.0 mi WSW 8.1 mph - N/A   Clear
1:15 PM 44.6 °F 40.2 °F 12.9 °F 28% 29.81 in 10.0 mi West 8.1 mph - N/A   Unknown
1:35 PM 43.9 °F 39.3 °F 9.3 °F 24% 29.80 in 10.0 mi West 8.1 mph 20.7 mph N/A   Clear
1:55 PM 43.7 °F 37.3 °F 10.9 °F 26% 29.80 in 10.0 mi West 12.7 mph 17.3 mph N/A   Clear
2:15 PM 43.3 °F 40.7 °F 15.3 °F 32% 29.80 in 10.0 mi NNW 4.6 mph - N/A   Clear
2:35 PM 41.0 °F 37.1 °F 19.6 °F 42% 29.79 in 10.0 mi North 5.8 mph - N/A   Scattered Clouds
2:55 PM 41.9 °F 39.0 °F 14.5 °F 33% 29.79 in 10.0 mi WNW 4.6 mph - N/A   Scattered Clouds
3:15 PM 41.0 °F 38.0 °F 18.3 °F 40% 29.79 in 10.0 mi North 4.6 mph - N/A   Mostly Cloudy
3:35 PM 39.4 °F 34.5 °F 19.4 °F 45% 29.79 in 10.0 mi NNE 6.9 mph - N/A   Mostly Cloudy
3:55 PM 38.3 °F 35.9 °F 19.6 °F 47% 29.79 in 10.0 mi NNE 3.5 mph - N/A   Overcast
4:15 PM 38.3 °F 33.9 °F 20.7 °F 49% 29.79 in 10.0 mi NE 5.8 mph - N/A   Mostly Cloudy
4:35 PM 38.3 °F - 21.2 °F 50% 29.79 in 10.0 mi Calm Calm - N/A   Scattered Clouds
4:55 PM 38.3 °F - 19.9 °F 48% 29.79 in 10.0 mi Calm Calm - N/A   Clear
5:15 PM 35.8 °F 31.9 °F 19.4 °F 51% 29.79 in 10.0 mi SSW 4.6 mph - N/A   Clear
5:35 PM 38.8 °F 30.8 °F 12.6 °F 34% 29.78 in 10.0 mi WSW 13.8 mph 20.7 mph N/A   Clear
5:55 PM 38.3 °F 31.9 °F 12.2 °F 34% 29.78 in 10.0 mi WSW 9.2 mph - N/A   Clear
6:15 PM 38.3 °F 31.9 °F 11.3 °F 33% 29.78 in 10.0 mi WSW 9.2 mph 17.3 mph N/A   Clear
6:35 PM 38.3 °F 33.2 °F 12.4 °F 35% 29.78 in 10.0 mi West 6.9 mph - N/A   Clear
6:55 PM 38.3 °F 31.9 °F 12.4 °F 35% 29.78 in 10.0 mi WSW 9.2 mph - N/A   Clear
7:20 PM 38.3 °F 31.9 °F 13.1 °F 36% 29.78 in 10.0 mi WSW 9.2 mph 18.4 mph N/A   Clear
7:35 PM 38.3 °F 31.4 °F 14.0 °F 37% 29.77 in 10.0 mi WSW 10.4 mph 23.0 mph N/A   Clear
7:55 PM 38.3 °F 33.2 °F 15.8 °F 40% 29.78 in 10.0 mi WSW 6.9 mph - N/A   Clear
8:15 PM 35.6 °F 28.6 °F 15.1 °F 43% 29.78 in 10.0 mi WSW 9.2 mph - N/A   Clear
8:35 PM 35.6 °F 27.5 °F 13.5 °F 40% 29.78 in 10.0 mi WSW 11.5 mph 19.6 mph N/A   Clear
8:55 PM 35.6 °F 28.6 °F 12.7 °F 39% 29.79 in 10.0 mi WSW 9.2 mph - N/A   Clear
9:15 PM 35.6 °F 32.8 °F 14.5 °F 42% 29.79 in 10.0 mi West 3.5 mph - N/A   Clear
9:35 PM 35.6 °F 28.6 °F 15.3 °F 43% 29.79 in 10.0 mi West 9.2 mph - N/A   Clear
9:55 PM 33.1 °F 24.4 °F 13.5 °F 44% 29.80 in 10.0 mi WSW 11.5 mph 16.1 mph N/A   Clear
10:15 PM 33.1 °F 27.7 °F 12.9 °F 43% 29.80 in 10.0 mi WSW 5.8 mph 17.3 mph N/A   Clear
10:35 PM 32.9 °F 29.8 °F 13.5 °F 45% 29.80 in 10.0 mi WSW 3.5 mph - N/A   Clear
10:55 PM 32.0 °F 26.4 °F 12.2 °F 44% 29.80 in 10.0 mi WSW 5.8 mph - N/A   Clear
11:15 PM 30.9 °F 27.5 °F 11.8 °F 45% 29.80 in 10.0 mi West 3.5 mph - N/A   Clear
11:35 PM 30.9 °F 27.5 °F 13.1 °F 48% 29.80 in 10.0 mi WSW 3.5 mph 16.1 mph N/A   Clear
11:55 PM 30.9 °F 27.5 °F 14.4 °F 50% 29.80 in 10.0 mi WSW 3.5 mph - N/A   Mostly Cloudy